Pilot information for Beaufort

[ general | frequencies | runways | weather | notam | navaids | links ]

Caution: This page displays community-maintained data: information may be missing, incorrect, or out of date. Please confirm with an official source before making travel plans.

General information for Beaufort

Airport codes: YBFT
Type: local airport(light traffic)
Scheduled airline service: no
Latitude: -37.495000 | 37 29.700000 S | S37 29 41
Longitude: 143.430000 | 143 25.800000 E | E143 25 48
Field elevation: 1,300 ft/396 m MSL

Radio communication frequencies for Beaufort

No communications frequencies known for Beaufort.

Members can add and update frequencies.

Runways at Beaufort

No runway information available for Beaufort.

Members can add and update runway information.

Aviation weather for Beaufort

Current conditions (METAR) for Beaufort

Closest report is Avalon Airport, 59.2 nm (109.6 km) SE. Retrieved 2015/05/25 09:00:

YMAV 250900Z AUTO 07004KT 9999 // NCD 10/08 Q1029

Forecast (TAF) for Beaufort

Closest forecast is Avalon Airport, 59.2 nm (109.6 km) SE. Retrieved 2015/05/25 00:48:

TAF TAF YMAV 250037Z 2500/2524 01005KT CAVOK 
     FM250400 12007KT CAVOK 
     FM251000 33005KT CAVOK 
      RMK

Notices to Airmen (NOTAM) for Beaufort

Please confirm all NOTAMs at the original source! These are for information only, and may be wrong, out of date, or incomplete.

We have no current NOTAMs for Beaufort. Please check with an official source to confirm.